[[{"header":{"parameterUnit":"m.s-1","parameterCategory":1,"la1":30.2991,"la2":30.254,"lo1":-89.0895,"lo2":-89.0444,"dy":0.0017,"dx":0.0017,"nx":28,"ny":28,"refTime":"2025-06-14T09:00:00:Z","depth":0,"parameterNumber":2,"parameterNumberName":"U-component_of_WINDS"},"data":[0,0,0,0,0,0,0,0,0,0,0,0,0,0,0,0,0,0,0,0,0,0,0,0,0,0,0,0,0,0,0,0,0,0,0,0,0,0,0,0,0,0,0,0,0,0,0,0,0,0,0,0,0,0,0,0,0,0,2.4131,2.4132,0,2.418,2.418,2.4181,2.4129,2.4127,2.4125,2.4123,2.4173,2.4176,2.418,0,0,0,0,0,0,0,0,0,0,0,0,0,2.3992,2.3995,2.4131,2.4132,2.4132,2.418,2.418,2.4181,2.4129,2.4127,2.4124,2.4122,2.4172,2.4176,2.418,0,0,0,0,0,0,0,0,0,0,0,0,0,2.4048,2.3996,2.4131,2.4112,2.4111,2.4179,2.418,2.4181,2.413,2.4126,2.4123,2.4121,2.4171,2.4176,2.418,2.427,0,0,2.4195,2.4197,0,0,0,0,0,0,0,0,2.4045,2.4053,2.4114,2.4114,2.4112,2.4145,2.415,2.4211,2.413,2.4123,2.4123,2.4119,2.4166,2.4171,2.4187,2.4273,2.4275,2.4196,2.4199,2.4201,2.4202,0,0,0,0,0,0,0,2.4041,2.405,2.415,2.4115,2.4114,2.4101,2.4105,2.4161,2.4161,2.4123,2.4119,2.4126,2.4165,2.4183,2.4188,2.4276,2.4196,2.42,2.4203,2.4205,2.4433,2.4436,0,0,0,0,0,0,2.4039,2.4048,2.4149,2.4152,2.407,2.4106,2.4111,2.4138,2.416,2.416,2.4128,2.4123,2.4176,2.4182,2.419,2.4293,2.4201,2.4205,2.4208,2.443,2.4434,2.4437,0,0,0,0,0,0,2.4036,2.4049,2.4147,2.4099,2.411,2.4111,2.4142,2.414,2.4157,2.4164,2.4164,2.4146,2.4174,2.4183,2.425,2.4294,2.4207,2.4212,2.4426,2.4431,2.4435,2.4502,0,0,0,0,0,0,2.4033,2.4048,2.4083,2.41,2.4113,2.4207,2.4145,2.4143,2.4166,2.4159,2.4181,2.4181,2.4172,2.4243,2.4254,2.4299,2.4215,2.4422,2.4428,2.4434,2.4496,2.4509,2.452,0,0,0,0,0,2.4028,2.4101,2.4085,2.4097,2.4156,2.4209,2.4217,2.4205,2.417,2.4204,2.4207,2.418,2.4288,2.425,2.4263,2.431,2.4419,2.4427,2.4433,2.4491,2.4506,2.4519,0,0,0,0,0,0,2.409,2.4103,2.4085,2.4166,2.4187,2.42,2.4243,2.4222,2.4254,2.4247,2.423,2.4236,2.4306,2.4315,2.4272,2.4396,2.4348,2.4358,2.4387,2.4402,2.4413,2.4408,2.4219,0,0,0,0,0,2.4113,2.4155,2.4164,2.4234,2.4246,2.4243,2.4266,2.4254,2.4275,2.4284,2.4293,2.4314,2.4352,2.4378,2.4414,2.4498,2.45,2.4536,2.4548,2.4557,2.4566,2.4607,2.4622,2.4461,2.4461,2.446,0,0,2.4161,2.4173,2.4201,2.4247,2.4262,2.4305,2.4251,2.43,2.433,2.4292,2.4354,2.4361,2.4384,2.4459,2.4492,2.4468,2.4611,2.4567,2.4574,2.4577,2.4616,2.4631,2.4645,2.4465,2.4465,2.4464,0,0,2.427,2.4285,2.4343,2.4358,2.4381,2.4378,2.4392,2.4408,2.4411,2.4474,2.4444,2.4481,2.4548,2.4564,2.4581,2.4693,2.4668,2.4706,2.4766,2.4807,2.4819,2.483,2.4867,2.4881,2.4714,2.4714,2.4714,0,2.4327,2.439,2.4376,2.4425,2.4445,2.4411,2.4468,2.4484,2.4518,2.4532,2.4505,2.4585,2.4599,2.4675,2.4702,2.4718,2.4731,2.4702,2.4819,2.483,2.484,2.4875,2.4889,2.4718,2.4718,2.4718,2.4717,0,2.4457,2.4501,2.4546,2.4577,2.4602,2.4656,2.4648,2.4675,2.4661,2.4661,2.4723,2.4738,2.4774,2.4792,2.478,2.4866,2.4849,2.4821,2.4772,2.486,2.4892,2.4905,2.4724,2.4723,2.4722,2.4721,0,0,2.4606,2.4627,2.4643,2.4655,2.4676,2.471,2.4761,2.4796,2.4818,2.4842,2.4882,2.4939,2.4911,2.4931,2.492,2.4956,2.5039,2.4923,2.4923,2.4941,2.5131,2.515,2.5166,2.5024,2.5026,2.5028,2.5128,0,2.4713,2.48,2.4787,2.4871,2.491,2.4877,2.4921,2.4939,2.4939,2.4972,2.4973,2.5012,2.4975,2.4985,2.502,2.5022,2.5077,2.5015,2.506,2.5061,2.5052,2.5183,2.5204,2.5297,2.5141,2.5143,2.5144,0,2.4849,2.4875,2.4962,2.4974,2.499,2.503,2.5058,2.5091,2.5109,2.5107,2.5127,2.5109,2.5158,2.511,2.5177,2.5135,2.5152,2.5156,2.5159,2.5161,2.5106,2.5185,2.5327,2.534,2.5165,2.5163,2.5162,0,2.4944,2.5002,2.5061,2.5073,2.5089,2.5117,2.5125,2.514,2.5161,2.5186,2.5199,2.523,2.5247,2.5271,2.5261,2.5228,2.5329,2.5281,2.5326,2.5327,2.5347,2.5346,2.5491,2.5364,2.5364,2.5364,2.5363,0,2.5062,2.5116,2.5103,2.5139,2.5198,2.5182,2.5241,2.5245,2.5258,2.5293,2.5268,2.5301,2.5288,2.532,2.5313,2.5367,2.5376,2.5374,2.5371,2.5375,2.5374,2.5384,2.5376,2.5367,2.5366,2.5366,2.5365,0,2.5178,2.5172,2.5233,2.5243,2.5246,2.5289,2.5297,2.5329,2.5328,2.5372,2.5382,2.5379,2.5416,2.5409,2.545,2.5445,2.5511,2.5502,2.5505,2.5501,2.5546,2.5541,2.5701,2.5719,2.5583,2.5585,2.5586,0,2.5253,2.5293,2.5306,2.5327,2.5336,2.5372,2.5391,2.5378,2.5399,2.5421,2.5451,2.5485,2.5511,2.5571,2.5572,2.5602,2.5591,2.5645,2.5596,2.5597,2.5588,2.5585,2.5587,2.5654,2.5656,2.5657,2.5658,0,2.5384,2.5378,2.5408,2.5435,2.5459,2.5481,2.55,2.5519,2.5507,2.5532,2.5568,2.5588,2.5629,2.5662,2.5689,2.5697,2.5675,2.5674,2.5685,2.5688,2.5686,2.5684,2.5528,2.567,2.5669,2.5668,2.5667,2.5667,2.5479,2.5512,2.5525,2.5558,2.557,2.5588,2.5618,2.5619,2.5649,2.5679,2.567,2.571,2.5725,2.5759,2.577,2.5801,2.5781,2.5799,2.5803,2.5806,2.581,2.5684,2.5807,2.5806,2.5806,2.5806,2.5805,0,2.5606,2.5612,2.5643,2.5669,2.5694,2.5671,2.569,2.5712,2.5748,2.5763,2.5789,2.5829,2.586,2.5863,2.5893,2.5916,2.5907,2.5924,2.5921,2.5922,2.5828,2.5813,2.5931,2.5931,2.5931,2.5931,2.5931,2.5931,2.5674,2.5727,2.5723,2.5781,2.5787,2.5825,2.5837,2.5853,2.5864,2.591,2.5935,2.5937,2.5947,2.5976,2.6003,2.6003,2.6014,2.6035,2.603,2.5942,2.5929,2.5917,2.5903,2.6038,2.6038,2.6121,2.6122,2.6123]},{"header":{"parameterUnit":"m.s-1","parameterCategory":1,"la1":30.2991,"la2":30.254,"lo1":-89.0895,"lo2":-89.0444,"dy":0.0017,"dx":0.0017,"nx":28,"ny":28,"refTime":"2025-06-14T09:00:00:Z","depth":0,"parameterNumber":3,"parameterNumberName":"V-component_of_WINDS"},"data":[0,0,0,0,0,0,0,0,0,0,0,0,0,0,0,0,0,0,0,0,0,0,0,0,0,0,0,0,0,0,0,0,0,0,0,0,0,0,0,0,0,0,0,0,0,0,0,0,0,0,0,0,0,0,0,0,0,0,2.6577,2.6577,0,2.6614,2.6614,2.6615,2.6544,2.6542,2.654,2.6538,2.6574,2.6577,2.6581,0,0,0,0,0,0,0,0,0,0,0,0,0,2.6443,2.6446,2.6577,2.6577,2.6578,2.6614,2.6614,2.6615,2.6545,2.6542,2.6539,2.6536,2.6573,2.6577,2.6581,0,0,0,0,0,0,0,0,0,0,0,0,0,2.6493,2.6447,2.6577,2.6547,2.6545,2.6614,2.6614,2.6615,2.6545,2.6542,2.6538,2.6535,2.6572,2.6577,2.6581,2.668,0,0,2.6596,2.6598,0,0,0,0,0,0,0,0,2.649,2.6498,2.6551,2.6549,2.6547,2.6571,2.658,2.6637,2.6546,2.6545,2.6537,2.6533,2.6576,2.658,2.6595,2.6682,2.6684,2.6596,2.6599,2.6601,2.6602,0,0,0,0,0,0,0,2.6487,2.6496,2.6591,2.6552,2.6549,2.6531,2.6534,2.6591,2.658,2.6545,2.654,2.6545,2.6574,2.659,2.6595,2.6684,2.6596,2.66,2.6603,2.6605,2.6852,2.6855,0,0,0,0,0,0,2.6487,2.6493,2.659,2.6592,2.6509,2.6536,2.654,2.6567,2.6579,2.6577,2.6548,2.6542,2.6584,2.659,2.6596,2.6711,2.6601,2.6605,2.6608,2.6848,2.6853,2.6857,0,0,0,0,0,0,2.6485,2.6496,2.6589,2.6542,2.6552,2.6543,2.6573,2.6569,2.6585,2.6581,2.6579,2.6567,2.6581,2.6589,2.6659,2.6711,2.6608,2.6612,2.6844,2.685,2.6855,2.6943,0,0,0,0,0,0,2.6481,2.6496,2.6534,2.6543,2.6555,2.6652,2.6576,2.6573,2.6594,2.6586,2.6598,2.6597,2.6579,2.6653,2.6664,2.6716,2.6616,2.6839,2.6846,2.6853,2.6935,2.6951,2.6964,0,0,0,0,0,2.6477,2.6558,2.6537,2.6549,2.6602,2.6656,2.6662,2.6641,2.6598,2.6636,2.6633,2.6597,2.6704,2.6661,2.6673,2.6727,2.6836,2.6844,2.6852,2.6929,2.6948,2.6964,0,0,0,0,0,0,2.6555,2.6558,2.6535,2.6622,2.6639,2.6644,2.6691,2.6662,2.6691,2.6682,2.6654,2.6657,2.6732,2.6737,2.6688,2.6822,2.6763,2.6774,2.6816,2.6834,2.6849,2.6846,2.662,0,0,0,0,0,2.6583,2.6627,2.6627,2.6703,2.6713,2.6701,2.6723,2.6705,2.6721,2.6728,2.673,2.6747,2.6784,2.681,2.6844,2.6936,2.6936,2.6979,2.6993,2.7005,2.7015,2.7061,2.708,2.6884,2.6884,2.6884,0,0,2.664,2.6647,2.6677,2.6719,2.673,2.6775,2.6707,2.6758,2.679,2.6736,2.6801,2.6804,2.6821,2.6901,2.6937,2.6907,2.7069,2.7016,2.7025,2.7028,2.7072,2.709,2.7107,2.689,2.6889,2.6888,0,0,2.6767,2.6778,2.6841,2.6854,2.6872,2.6862,2.6878,2.6887,2.6886,2.6952,2.6911,2.6949,2.7015,2.7028,2.7043,2.7173,2.714,2.7185,2.726,2.7306,2.7321,2.7335,2.738,2.7397,2.7195,2.7195,2.7196,0,2.6836,2.6902,2.6878,2.6931,2.695,2.6902,2.6966,2.6979,2.7007,2.7021,2.6987,2.7067,2.7075,2.7158,2.7189,2.7204,2.7219,2.7183,2.7321,2.7335,2.7347,2.7389,2.7406,2.7201,2.72,2.7199,2.7199,0,2.6985,2.7032,2.7081,2.7109,2.7134,2.7192,2.7175,2.7203,2.7182,2.7177,2.7243,2.7251,2.7285,2.7303,2.7284,2.7383,2.7363,2.7326,2.7266,2.7371,2.741,2.7427,2.7208,2.7206,2.7205,2.7203,0,0,2.7163,2.7176,2.7194,2.7206,2.7221,2.7256,2.7311,2.7345,2.7368,2.7389,2.7434,2.7489,2.7455,2.7472,2.7453,2.7494,2.7594,2.7451,2.7451,2.7476,2.7701,2.7729,2.7748,2.7573,2.7576,2.7578,2.77,0,2.7288,2.7383,2.7362,2.7456,2.7497,2.7452,2.75,2.7514,2.751,2.7544,2.7539,2.7578,2.753,2.754,2.7578,2.7574,2.7639,2.7565,2.7613,2.7615,2.7609,2.7769,2.7798,2.7912,2.7715,2.7718,2.7719,0,2.7446,2.7472,2.757,2.7577,2.7594,2.7637,2.7665,2.7699,2.7713,2.7707,2.7726,2.7699,2.7752,2.7692,2.7764,2.7715,2.7733,2.7734,2.7737,2.774,2.7673,2.7775,2.7948,2.7965,2.7744,2.7742,2.774,0,2.7564,2.7624,2.769,2.7701,2.7711,2.7742,2.7748,2.7759,2.778,2.7804,2.7817,2.7848,2.7864,2.7888,2.7869,2.7827,2.7944,2.7882,2.7939,2.794,2.7965,2.7964,2.8143,2.7979,2.7979,2.7979,2.7978,0,2.7705,2.7766,2.7742,2.7783,2.7849,2.7824,2.7891,2.7891,2.7901,2.7939,2.7902,2.7939,2.7913,2.7948,2.7934,2.7995,2.8003,2.7998,2.7994,2.8001,2.8002,2.8012,2.8003,2.7983,2.7982,2.7981,2.798,0,2.7848,2.7835,2.7903,2.7907,2.7909,2.7958,2.7961,2.7997,2.799,2.804,2.805,2.8038,2.8077,2.8061,2.8101,2.8092,2.817,2.8155,2.8165,2.8161,2.8218,2.8212,2.8409,2.8433,2.8255,2.8257,2.8258,0,2.7938,2.7984,2.7992,2.8016,2.8024,2.8062,2.8083,2.8059,2.8082,2.8101,2.8136,2.8171,2.8198,2.8261,2.8256,2.8286,2.8272,2.8338,2.8276,2.8281,2.8271,2.8268,2.8271,2.8351,2.8353,2.8354,2.8356,0,2.8099,2.809,2.8121,2.8151,2.8176,2.8198,2.8217,2.8238,2.8215,2.8243,2.8282,2.8303,2.8344,2.8379,2.8405,2.841,2.8379,2.8376,2.839,2.8398,2.8401,2.8398,2.8198,2.8371,2.8369,2.8368,2.8368,2.8367,2.8217,2.8255,2.8266,2.8302,2.8314,2.8332,2.8366,2.8363,2.8395,2.8426,2.841,2.8455,2.8467,2.8499,2.8508,2.8542,2.8516,2.8537,2.8542,2.8548,2.8555,2.8396,2.8547,2.8547,2.8546,2.8546,2.8546,0,2.8374,2.8379,2.8413,2.8439,2.8468,2.8436,2.8455,2.848,2.852,2.8533,2.856,2.8604,2.8638,2.8635,2.8665,2.8693,2.8679,2.8701,2.8698,2.87,2.8577,2.8561,2.8712,2.8712,2.8712,2.8712,2.8712,2.8712,2.8459,2.8521,2.8513,2.858,2.8584,2.8628,2.8641,2.8657,2.8667,2.8718,2.8745,2.8743,2.875,2.878,2.8809,2.8807,2.8819,2.8847,2.884,2.8725,2.8709,2.8693,2.8677,2.885,2.885,2.8959,2.896,2.8961]}]]